Regional Weather Roundup
Issued by NWS Jackson, KY

Home | Current Version | Previous Version | Graphics & Text | Print | Product List | Glossary On
Versions: 1 2 3 4 5 6 7 8 9 10 11 12 13 14 15 16 17 18 19 20 21 22 23 24 25 26 27 28 29 30 31 32 33 34 35 36 37 38 39 40 41 42 43 44 45 46 47 48 49 50
000
ASUS43 KJKL 020410
RWRJKL

EAST KENTUCKY HOURLY WEATHER ROUNDUP
NATIONAL WEATHER SERVICE JACKSON KY
1200 AM EDT SUN AUG 02 2015

NOTE: "FAIR" INDICATES FEW OR NO CLOUDS BELOW 12,000 FEET WITH
NO SIGNIFICANT WEATHER AND/OR OBSTRUCTIONS TO VISIBILITY.

* THESE REPORTS ARE NOT UNDER NWS QUALITY CONTROL AND MAY NOT
  REPORT WEATHER SUCH AS PRECIPITATION AND FOG.

KYZ079-080-083-085-087-088-110-112-115-119-120-020500
...EASTERN KENTUCKY...

CITY           SKY/WX    TMP DP  RH WIND       PRES   REMARKS
JACKSON        CLEAR     70  57  63 CALM      30.02S
LONDON         CLEAR     67  60  78 CALM      30.02S
SOMERSET*      CLEAR     63  63 100 CALM      30.03R
MONTICELLO*    CLEAR     63  63 100 CALM      30.05R
MIDDLESBORO*   PTCLDY    67  64  88 CALM      30.03S
HAZARD APT*    CLEAR     64  64 100 CALM      30.02S
BLACK MTN*       N/A     61  57  88 NW1         N/A
PIKEVILLE APT* CLEAR     72  59  64 CALM      30.02S
BIG SANDY*     CLEAR     67  63  87 CALM      30.01S
MOREHEAD APT*  CLEAR     66  61  82 S5        30.02S
$$

KYZ035-036-041-042-044-050-067-078-099-020500
...CENTRAL KENTUCKY...

CITY           SKY/WX    TMP DP  RH WIND       PRES   REMARKS
MT STERLING*   CLEAR     63  63 100 CALM      30.02S
FLEMING/MASON* CLEAR     68  61  77 W5        30.01F
DANVILLE*      PTCLDY    63  61  94 CALM      30.03S
RICHMOND*      PTCLDY    68  59  73 CALM      30.01S
LEXINGTON      CLEAR     66  60  81 CALM      30.01S
FRANKFORT      PTCLDY    66  60  81 CALM      29.99F
$$

KYZ091>093-OHZ055-061-077-WVZ005-015-034-035-042-020500
...SOUTHERN OHIO/WEST VIRGINIA...

CITY           SKY/WX    TMP DP  RH WIND       PRES   REMARKS
COVINGTON      PTCLDY    70  58  65 W5        30.00S
COLUMBUS       MOCLDY    72  56  57 CALM      29.96S
DAYTON         PTCLDY    67  59  75 W7        29.99F
WILMINGTON     PTCLDY    65  58  78 SW3       29.99F
HUNTINGTON     CLEAR     66  61  84 CALM      29.99S
CHARLESTON     PTCLDY    65  61  87 CALM      30.00R
PINEVILLE*     CLEAR     61  61 100 MISG      30.09R
BECKLEY        CLEAR     62  56  80 SE3       30.07S
BLUEFIELD      CLEAR     67  56  67 W3        30.08F
$$

VAZ002-007-008-TNZ017-027-036-066-071-020500
...SOUTHWEST VIRGINIA/EAST TENNESSEE...

CITY           SKY/WX    TMP DP  RH WIND       PRES   REMARKS
WISE*          CLEAR     64  55  72 CALM      30.10R
ABINGDON*      PTCLDY    66  61  82 CALM      30.05S
BRISTOL        PTCLDY    66  61  84 CALM      30.02R
KNOXVILLE      PTCLDY    74  67  78 NE3       29.99R
OAK RIDGE      CLEAR     71  64  78 CALM      30.01S
CROSSVILLE     CLEAR     72  60  66 N5        30.06S
NASHVILLE      PTCLDY    76  62  62 NE5       30.00S
$$

...KEY TO REMARKS...
VSB - VISIBILITY IN MILES
WCI - WIND CHILL INDEX
HX  - HEAT INDEX

$$



USA.gov is the U.S. government's official web portal to all federal, state and local government web resources and services.